sat.trackr.live / text

‹ back to catalog

FLOCK 4H-27

NORAD 66730 · 2025-276BS

PAYLOAD ACTIVE UNKNOWN

§ Identity

Operator
Country
US
Launch date
2025-11-28
Launch site
AFWTR
Launch vehicle
Mass (kg)
RCS (m²)

Purposes: earth_obs

External: N2YO · Heavens-Above · Gunter

§ Orbital elements

Epoch: 2026-05-25T03:43:46.742304Z

Period
94.73 min
Inclination
97.4172°
Eccentricity
0.0002045
Mean motion
15.20159844 rev/d
Perigee alt
504.0 km
Apogee alt
506.8 km
Semi-major
6,883.5 km
B*
2.8387e-4
RAAN
219.1654°
Arg perigee
84.5070°
Mean anomaly
275.6399°
Rev number
2,693

§ Raw data

FLOCK 4H-271 66730U 25276BS  26145.15540211  .00006075  00000+0  28387-3 0  99992 66730  97.4172 219.1654 0002045  84.5070 275.6399 15.20159844 26937

JSON: /api/v1/satellites/66730 · /tle

For live sub-satellite position, see the globe view (requires WebGL).

§ Visibility from observer

Set your observer location to see the next 7 days of passes ≥ 10°. The values pass through the URL so the page stays shareable.

No JS? Fill the form by hand. The geolocation button needs JavaScript.